OBJECT A, 63291

Orbit data source: Space-Track

You're viewing an Uncataloged Satellite

Recently launched and/or uncataloged satellites may have evolving metadata. Metadata may include but not limited to: Owner, Maufacturer, Bus, Motor, and Mission.

OBJECT A, 63291 is a satellite owned by Yunyao yuhang (CN) in SSO that was launched on Mon, 17 Mar 2025 UTC via a GUSHENXING 1 launch vehicle from the Jiuquan Satellite Launch Center, China (JSC). Unknown objects in Earth's orbit typically refer to objects detected orbiting the Earth but have not yet been identified or cataloged. These objects could be anything from previously untracked satellites, spent rocket stages, debris from satellite collisions, or even natural meteoroids temporarily captured by Earth's gravity.

Loading next visibility...
Identifier
63291, 2025-055A
Orbit
SSO
Last TLE update
9 hours ago
Origin
Flag of CNYYAO (CN / PRC)
Manufacturer
Changguang WJ
Mission
Operational Commercial Meteo Radio Occ.
Bus & Motor
YY-1, Unknown motor
Mass
~50 kg wet, ~50 kg dry
Launch date (UTC)
2025-03-17 (2 months ago)
Launch vehicle
GUSHENXING 1
Launch site
Jiuquan Satellite Launch Center, China (JSC)
Object type
Unknown
Shape & HBR
Box + 1 Pan, 5 m
Radar Cross Section
5.339 m², Medium (>0.1 m² and < 1m²)

Expand to show TLE details & history

TLE from 9 hours ago
0 OBJECT A
1 63291U 25055A   25128.91464310  .00011168  00000-0  66529-3 0  9992
2 63291  97.6075 263.9739 0014026 115.5310 244.7372 15.11284836  7943
Epoch: 2025-05-08T21:57Z
Definitive object data (Epoch: 2025-05-08T21:57:05.163Z)
Latitude
-0.00003°
Longitude
67.72409°
Altitude
539.502 km
Speed
7.59 km/s
True Right ascension
17h 35m 53s
True Declination
0° 00' 00"
Sunlit
Object was in full shadow at TLE epoch
Visualization TLE readout
Latitude
-4.73571°
Longitude
-112.54338°
Altitude
532.792 km
Speed
7.598 km/s
Apparent Right ascension
04h 27m 31s
Apparent Declination
-22° 44' 12"
Sunlit
Object is in daylight
Visualization observer readout
Local Sidereal Time
14:51:27
Azimuth
303.042° NW
Elevation
-63.4°
Doppler factor
1
Orbital elements
Apogee altitude
538.955 km
Perigee altitude
519.578 km
Semi-major axis
6,907.404 km
Eccentricity
0.0014026
Inclination
97.6075°
RAAN
263.9739°
Arg. of periapsis
115.531°
True anomaly
244.59195°
Mean anomaly
244.7372°
Eccentric anomaly
244.66457°
Mean motion
3.78069 °/min
BSTAR
0.00066529
Orbital period
95.22 mins
Loading maneuver chart data...
Loading SW <> Apogee altitude chart data...
Loading historical data...
Loading historical data...
Loading historical data...
Loading historical data...
Loading historical data...
Loading historical data...
Loading historical data...

OBJECT A Visibility forecast

Observer location: undefined°, undefined°

Span
Click to sort rows by Start time (UTC) header in descending order
Start Az.
Max El. time (UTC)
Max El. Az.
Max El.
End time (UTC)
End Az.
7 mins2025-05-09 09:11:35.198Z178.476° S2025-05-09 09:14:35.198Z223.752° SW39.964°2025-05-09 09:18:35.198Z340.348° N
5 mins2025-05-09 22:21:35.198Z343.348° N2025-05-09 22:23:35.198Z293.141° NW30.575°2025-05-09 22:26:35.198Z224.516° SW
|